Petersburg, AK

2:01 PM AKDT on September 26, 2016 (GMT -0800)
Johnson Petersburg

Weather History for PAPG - October, 2014

Change the Weather History Date:

Monday, October 13, 2014

  Actual Average Record
Temperature  
Mean Temperature 46 °F -  
Max Temperature 51 °F 46 °F 57 °F (1986)
Min Temperature 42 °F 38 °F 30 °F (1992)
Degree Days  
Heating Degree Days 18    
Moisture  
Dew Point 42 °F    
Average Humidity 87    
Maximum Humidity 93    
Minimum Humidity 62    
Precipitation  
Precipitation 0.00 in - - ()
Sea Level Pressure  
Sea Level Pressure 29.35 in    
Wind  
Wind Speed 3 mph (ENE)    
Max Wind Speed 12 mph    
Max Gust Speed 21 mph    
Visibility 7 miles    
Events Fog , Rain    
Averages and records for this station are not official NWS values.
T = Trace of Precipitation, MM = Missing Value Source: NWS Daily Summary

Daily Weather History Graph

Daily Weather History Graph

Search for Another Location

Airport or City:

Trip Planner

Search our weather history database for the weather conditions in past years. The results will help you decide how hot, cold, wet, or windy it might be!

Date:

Astronomy

Oct. 13, 2014 Rise Set
Actual Time 7:20 AM AKDT 5:54 PM AKDT
Civil Twilight 6:42 AM AKDT 6:32 PM AKDT
Nautical Twilight 5:58 AM AKDT 7:16 PM AKDT
Astronomical Twilight 5:14 AM AKDT 8:00 PM AKDT
Moon 9:33 PM AKDT (10/13) 1:20 PM AKDT (10/13)
Length of Visible Light 11h 50m
Length of Day
10h 33m
Waning Gibbous, 69% of the Moon is Illuminated
Oct 13
Waning Gibbous
Oct 15
Last Quarter
Oct 23
New
Oct 30
First Quarter
Nov 6
Full

Hourly Weather History & Observations

Time (AKDT) Temp. Windchill Dew Point Humidity Pressure Visibility Wind Dir Wind Speed Gust Speed Precip Events Conditions
12:01 AM 48.2 °F - 46.4 °F 93% 29.62 in 10.0 mi Calm Calm - N/A   Mostly Cloudy
1:02 AM 48.2 °F - 44.6 °F 87% 29.62 in 10.0 mi South 3.5 mph - N/A   Mostly Cloudy
1:54 AM 46.4 °F - 44.6 °F 93% 29.62 in 10.0 mi Calm Calm - N/A   Overcast
2:54 AM 46.4 °F 45.2 °F 44.6 °F 93% 29.60 in 10.0 mi SSW 3.5 mph - N/A   Overcast
4:11 AM 44.6 °F 42.2 °F 42.8 °F 93% 29.58 in 10.0 mi SSE 4.6 mph - N/A   Scattered Clouds
5:13 AM 42.8 °F - 41.0 °F 93% 29.55 in 0.5 mi Calm Calm - N/A   Overcast
6:00 AM 42.8 °F 41.1 °F 41.0 °F 93% 29.53 in 0.5 mi SSW 3.5 mph - N/A Fog Fog
6:56 AM 44.6 °F 42.2 °F 42.8 °F 93% 29.50 in 1.5 mi SSW 4.6 mph - N/A   Overcast
7:56 AM 42.8 °F - 41.0 °F 93% 29.49 in 0.5 mi Calm Calm - N/A Fog Fog
8:56 AM 44.6 °F 43.1 °F 41.0 °F 87% 29.45 in 0.5 mi NE 3.5 mph - N/A Fog Fog
9:56 AM 44.6 °F 43.1 °F 42.8 °F 93% 29.39 in 1.0 mi ENE 3.5 mph - N/A   Mostly Cloudy
10:10 AM 44.6 °F 43.1 °F 42.8 °F 93% 29.37 in 7.0 mi ENE 3.5 mph - N/A Fog Patches of Fog
10:56 AM 44.6 °F 41.4 °F 42.8 °F 93% 29.34 in 10.0 mi North 5.8 mph - N/A Fog Patches of Fog
11:56 AM 44.6 °F 40.7 °F 42.8 °F 93% 29.28 in 0.5 mi NNE 6.9 mph - N/A Fog Fog
12:56 PM 44.6 °F 41.4 °F 41.0 °F 87% 29.21 in 0.5 mi NNE 5.8 mph - N/A Fog Fog
1:30 PM 44.6 °F 43.1 °F 42.8 °F 93% 29.17 in 5.0 mi NNE 3.5 mph - N/A   Mostly Cloudy
1:55 PM 44.6 °F - 42.8 °F 93% 29.16 in 10.0 mi Calm Calm - N/A Fog Patches of Fog
2:56 PM 44.6 °F - 41.0 °F 87% 29.12 in 10.0 mi Calm Calm - N/A Rain Light Rain
3:56 PM 44.6 °F - 42.8 °F 93% 29.10 in 10.0 mi Calm Calm - N/A Fog , Rain Light Rain
4:56 PM 44.6 °F 43.1 °F 42.8 °F 93% 29.09 in 10.0 mi NE 3.5 mph - N/A Fog , Rain Light Rain
5:56 PM 44.6 °F - 42.8 °F 93% 29.11 in 10.0 mi Calm Calm - N/A Rain Light Rain
6:56 PM 44.6 °F 43.1 °F 42.8 °F 93% 29.16 in 10.0 mi NNE 3.5 mph - N/A Rain Light Rain Showers
7:56 PM 50.0 °F - 41.0 °F 71% 29.20 in 7.0 mi East 11.5 mph 20.7 mph N/A Rain Light Rain
8:56 PM 51.8 °F - 39.2 °F 62% 29.23 in 7.0 mi East 8.1 mph - N/A Rain Light Rain
9:56 PM 50.0 °F - 39.2 °F 66% 29.29 in 7.0 mi ENE 8.1 mph 19.6 mph N/A Rain Light Rain
11:10 PM 48.2 °F - 37.4 °F 66% 29.34 in 10.0 mi East 11.5 mph 16.1 mph N/A   Scattered Clouds
11:57 PM 48.2 °F - 37.4 °F 66% 29.35 in 10.0 mi East 10.4 mph 16.1 mph N/A   Mostly Cloudy